Time,TemperatureF,DewpointF,PressureIn,WindDirection,WindDirectionDegrees,WindSpeedMPH,WindSpeedGustMPH,Humidity,HourlyPrecipIn,Conditions,Clouds,dailyrainin,SolarRadiationWatts/m^2,SoftwareType,DateUTC
2013-04-22 00:01:00,64.0,12.0,-100.00,NE,47,3.0,7.0,13,0.00,,,0.00,1.000000,,2013-04-22 07:01:00,
2013-04-22 00:32:00,60.0,14.0,-100.00,NNE,29,2.0,5.0,16,0.00,,,0.00,1.000000,,2013-04-22 07:32:00,
2013-04-22 00:42:00,60.0,14.0,-100.00,NNE,29,2.0,5.0,16,0.00,,,0.00,1.000000,,2013-04-22 07:42:00,
2013-04-22 00:52:00,60.0,14.0,-100.00,NNE,29,2.0,5.0,16,0.00,,,0.00,1.000000,,2013-04-22 07:52:00,
2013-04-22 01:01:00,60.0,14.0,-100.00,NNE,29,2.0,5.0,16,0.00,,,0.00,1.000000,,2013-04-22 08:01:00,
2013-04-22 01:32:00,63.0,18.0,-100.00,ENE,68,4.0,7.0,17,0.00,,,0.00,1.000000,,2013-04-22 08:32:00,
2013-04-22 01:42:00,63.0,18.0,-100.00,ENE,68,4.0,7.0,17,0.00,,,0.00,1.000000,,2013-04-22 08:42:00,
2013-04-22 01:52:00,63.0,18.0,-100.00,ENE,68,4.0,7.0,17,0.00,,,0.00,1.000000,,2013-04-22 08:52:00,
2013-04-22 02:01:00,63.0,18.0,-100.00,ENE,68,4.0,7.0,17,0.00,,,0.00,1.000000,,2013-04-22 09:01:00,
2013-04-22 02:33:00,62.0,17.0,-100.00,NNE,33,4.0,6.0,17,0.00,,,0.00,1.000000,,2013-04-22 09:33:00,
2013-04-22 02:42:00,62.0,17.0,-100.00,NNE,33,4.0,6.0,17,0.00,,,0.00,1.000000,,2013-04-22 09:42:00,
2013-04-22 02:52:00,62.0,17.0,-100.00,NNE,33,4.0,6.0,17,0.00,,,0.00,1.000000,,2013-04-22 09:52:00,
2013-04-22 03:03:00,62.0,17.0,-100.00,NNE,33,4.0,6.0,17,0.00,,,0.00,1.000000,,2013-04-22 10:03:00,
2013-04-22 03:32:00,62.0,15.0,-100.00,WSW,238,1.0,9.0,16,0.00,,,0.00,1.000000,,2013-04-22 10:32:00,
2013-04-22 03:42:00,62.0,15.0,-100.00,WSW,238,1.0,9.0,16,0.00,,,0.00,1.000000,,2013-04-22 10:42:00,
2013-04-22 03:52:00,62.0,15.0,-100.00,WSW,238,1.0,9.0,16,0.00,,,0.00,1.000000,,2013-04-22 10:52:00,
2013-04-22 04:02:00,62.0,15.0,-100.00,WSW,238,1.0,9.0,16,0.00,,,0.00,1.000000,,2013-04-22 11:02:00,
2013-04-22 05:32:00,64.0,15.0,-100.00,ENE,60,4.0,10.0,15,-99.99,,,0.00,1.000000,,2013-04-22 12:32:00,
2013-04-22 06:32:00,63.0,16.0,-100.00,NE,37,5.0,7.0,16,-99.99,,,0.00,5.000000,,2013-04-22 13:32:00,
2013-04-22 07:33:00,69.0,18.0,-100.00,SE,141,3.0,10.0,14,0.00,,,0.00,121.000000,,2013-04-22 14:33:00,
2013-04-22 08:33:00,72.0,25.0,-100.00,SSE,168,3.0,8.0,17,0.00,,,0.00,334.000000,,2013-04-22 15:33:00,
2013-04-22 08:43:00,72.0,25.0,-100.00,SSE,168,3.0,8.0,17,0.00,,,0.00,334.000000,,2013-04-22 15:43:00,
2013-04-22 08:53:00,72.0,25.0,-100.00,SSE,168,3.0,8.0,17,0.00,,,0.00,334.000000,,2013-04-22 15:53:00,
2013-04-22 09:02:00,72.0,25.0,-100.00,SSE,168,3.0,8.0,17,0.00,,,0.00,334.000000,,2013-04-22 16:02:00,
2013-04-22 09:33:00,81.0,19.0,-100.00,SSW,194,4.0,7.0,10,0.00,,,0.00,548.000000,,2013-04-22 16:33:00,
2013-04-22 09:42:00,81.0,19.0,-100.00,SSW,194,4.0,7.0,10,0.00,,,0.00,548.000000,,2013-04-22 16:42:00,
2013-04-22 09:52:00,81.0,19.0,-100.00,SSW,194,4.0,7.0,10,0.00,,,0.00,548.000000,,2013-04-22 16:52:00,
2013-04-22 10:02:00,81.0,19.0,-100.00,SSW,194,4.0,7.0,10,0.00,,,0.00,548.000000,,2013-04-22 17:02:00,
2013-04-22 10:32:00,83.0,16.0,-100.00,WSW,246,4.0,8.0,8,0.00,,,0.00,738.000000,,2013-04-22 17:32:00,
2013-04-22 10:43:00,83.0,16.0,-100.00,WSW,246,4.0,8.0,8,0.00,,,0.00,738.000000,,2013-04-22 17:43:00,
2013-04-22 10:52:00,83.0,16.0,-100.00,WSW,246,4.0,8.0,8,0.00,,,0.00,738.000000,,2013-04-22 17:52:00,
2013-04-22 11:01:00,83.0,16.0,-100.00,WSW,246,4.0,8.0,8,0.00,,,0.00,738.000000,,2013-04-22 18:01:00,
2013-04-22 11:32:00,87.0,16.0,-100.00,North,11,3.0,9.0,7,0.00,,,0.00,884.000000,,2013-04-22 18:32:00,
2013-04-22 11:42:00,87.0,16.0,-100.00,North,11,3.0,9.0,7,0.00,,,0.00,884.000000,,2013-04-22 18:42:00,
2013-04-22 11:52:00,87.0,16.0,-100.00,North,11,3.0,9.0,7,0.00,,,0.00,884.000000,,2013-04-22 18:52:00,
2013-04-22 12:01:00,87.0,16.0,-100.00,North,11,3.0,9.0,7,0.00,,,0.00,884.000000,,2013-04-22 19:01:00,
2013-04-22 12:32:00,88.0,16.0,-100.00,South,183,6.0,16.0,7,0.00,,,0.00,967.000000,,2013-04-22 19:32:00,
2013-04-22 12:42:00,88.0,16.0,-100.00,South,183,6.0,16.0,7,0.00,,,0.00,967.000000,,2013-04-22 19:42:00,
2013-04-22 12:52:00,88.0,16.0,-100.00,South,183,6.0,16.0,7,0.00,,,0.00,967.000000,,2013-04-22 19:52:00,
2013-04-22 13:02:00,88.0,16.0,-100.00,South,183,6.0,16.0,7,0.00,,,0.00,967.000000,,2013-04-22 20:02:00,
2013-04-22 13:32:00,90.0,14.0,-100.00,West,273,6.0,15.0,6,0.00,,,0.00,987.000000,,2013-04-22 20:32:00,
2013-04-22 13:42:00,90.0,14.0,-100.00,West,273,6.0,15.0,6,0.00,,,0.00,987.000000,,2013-04-22 20:42:00,
2013-04-22 13:52:00,90.0,14.0,-100.00,West,273,6.0,15.0,6,0.00,,,0.00,987.000000,,2013-04-22 20:52:00,
2013-04-22 14:01:00,90.0,14.0,-100.00,West,273,6.0,15.0,6,0.00,,,0.00,987.000000,,2013-04-22 21:01:00,
2013-04-22 14:33:00,91.0,11.0,-100.00,WSW,258,6.0,17.0,5,0.00,,,0.00,942.000000,,2013-04-22 21:33:00,
2013-04-22 14:43:00,91.0,11.0,-100.00,WSW,258,6.0,17.0,5,0.00,,,0.00,942.000000,,2013-04-22 21:43:00,
2013-04-22 14:53:00,91.0,11.0,-100.00,WSW,258,6.0,17.0,5,0.00,,,0.00,942.000000,,2013-04-22 21:53:00,
2013-04-22 15:02:00,91.0,11.0,-100.00,WSW,258,6.0,17.0,5,0.00,,,0.00,942.000000,,2013-04-22 22:02:00,
2013-04-22 15:33:00,92.0,11.0,-100.00,NW,324,8.0,18.0,5,0.00,,,-99.99,837.000000,,2013-04-22 22:33:00,
2013-04-22 15:42:00,92.0,11.0,-100.00,NW,324,8.0,18.0,5,0.00,,,-99.99,837.000000,,2013-04-22 22:42:00,
2013-04-22 15:52:00,92.0,11.0,-100.00,NW,324,8.0,18.0,5,0.00,,,-99.99,837.000000,,2013-04-22 22:52:00,
2013-04-22 16:02:00,92.0,11.0,-100.00,NW,324,8.0,18.0,5,0.00,,,-99.99,837.000000,,2013-04-22 23:02:00,
2013-04-22 16:33:00,91.0,6.0,-100.00,West,281,10.0,19.0,4,0.00,,,0.00,674.000000,,2013-04-22 23:33:00,
2013-04-22 16:42:00,91.0,6.0,-100.00,West,281,10.0,19.0,4,0.00,,,0.00,674.000000,,2013-04-22 23:42:00,
2013-04-22 16:52:00,91.0,6.0,-100.00,West,281,10.0,19.0,4,0.00,,,0.00,674.000000,,2013-04-22 23:52:00,
2013-04-22 17:01:00,91.0,6.0,-100.00,West,281,10.0,19.0,4,0.00,,,0.00,674.000000,,2013-04-23 00:01:00,
2013-04-22 18:32:00,88.0,9.0,-100.00,NW,304,8.0,17.0,5,-99.99,,,0.00,246.000000,,2013-04-23 01:32:00,
2013-04-22 18:42:00,88.0,9.0,-100.00,NW,304,8.0,17.0,5,-99.99,,,0.00,246.000000,,2013-04-23 01:42:00,
2013-04-22 18:52:00,88.0,9.0,-100.00,NW,304,8.0,17.0,5,-99.99,,,0.00,246.000000,,2013-04-23 01:52:00,
2013-04-22 19:01:00,88.0,9.0,-100.00,NW,304,8.0,17.0,5,-99.99,,,0.00,246.000000,,2013-04-23 02:01:00,
2013-04-22 19:33:00,82.0,12.0,-100.00,NW,308,5.0,15.0,7,0.00,,,0.00,44.000000,,2013-04-23 02:33:00,
2013-04-22 19:42:00,82.0,12.0,-100.00,NW,308,5.0,15.0,7,0.00,,,0.00,44.000000,,2013-04-23 02:42:00,
2013-04-22 19:52:00,82.0,12.0,-100.00,NW,308,5.0,15.0,7,0.00,,,0.00,44.000000,,2013-04-23 02:52:00,
2013-04-22 20:01:00,82.0,12.0,-100.00,NW,308,5.0,15.0,7,0.00,,,0.00,44.000000,,2013-04-23 03:01:00,
2013-04-22 20:33:00,80.0,16.0,-100.00,NW,311,6.0,10.0,9,0.00,,,0.00,1.000000,,2013-04-23 03:33:00,
2013-04-22 20:43:00,80.0,16.0,-100.00,NW,311,6.0,10.0,9,0.00,,,0.00,1.000000,,2013-04-23 03:43:00,
2013-04-22 20:53:00,80.0,16.0,-100.00,NW,311,6.0,10.0,9,0.00,,,0.00,1.000000,,2013-04-23 03:53:00,
2013-04-22 21:03:00,80.0,16.0,-100.00,NW,311,6.0,10.0,9,0.00,,,0.00,1.000000,,2013-04-23 04:03:00,
2013-04-22 21:33:00,77.0,14.0,-100.00,NW,318,5.0,11.0,9,0.00,,,0.00,1.000000,,2013-04-23 04:33:00,
2013-04-22 21:43:00,77.0,14.0,-100.00,NW,318,5.0,11.0,9,0.00,,,0.00,1.000000,,2013-04-23 04:43:00,
2013-04-22 21:53:00,77.0,14.0,-100.00,NW,318,5.0,11.0,9,0.00,,,0.00,1.000000,,2013-04-23 04:53:00,
2013-04-22 22:02:00,77.0,14.0,-100.00,NW,318,5.0,11.0,9,0.00,,,0.00,1.000000,,2013-04-23 05:02:00,
2013-04-22 22:32:00,75.0,12.0,-100.00,WNW,293,5.0,12.0,9,0.00,,,-99.99,1.000000,,2013-04-23 05:32:00,
2013-04-22 22:42:00,75.0,12.0,-100.00,WNW,293,5.0,12.0,9,0.00,,,-99.99,1.000000,,2013-04-23 05:42:00,
2013-04-22 22:52:00,75.0,12.0,-100.00,WNW,293,5.0,12.0,9,0.00,,,-99.99,1.000000,,2013-04-23 05:52:00,
2013-04-22 23:01:00,75.0,12.0,-100.00,WNW,293,5.0,12.0,9,0.00,,,-99.99,1.000000,,2013-04-23 06:01:00,
2013-04-22 23:33:00,70.0,15.0,-100.00,West,268,1.0,9.0,12,0.00,,,0.00,1.000000,,2013-04-23 06:33:00,
2013-04-22 23:42:00,70.0,15.0,-100.00,West,268,1.0,9.0,12,0.00,,,0.00,1.000000,,2013-04-23 06:42:00,
2013-04-22 23:52:00,70.0,15.0,-100.00,West,268,1.0,9.0,12,0.00,,,0.00,1.000000,,2013-04-23 06:52:00,